Observations for Trim Patrick St
| Time | AQI | Temp °C | Hum % | Pres Pa | CO μg/m³ | H₂S μg/m³ | NO μg/m³ | NO₂ μg/m³ | O₃ μg/m³ | SO₂ μg/m³ | PM1 μg/m³ | PM2.5 μg/m³ | PM10 μg/m³ |
|---|---|---|---|---|---|---|---|---|---|---|---|---|---|
| Thursday 27 August 2026 | |||||||||||||
| 02:33 | 2 | 15.6 | 88 | 38,459 | 0.2 | 0.57 | 1.72 | 16.92 | 29.33 | 0 | 19.14 | 25.9 | 28.49 |
| 02:32 | 2 | 15.5 | 88 | 38,459 | 0.22 | 0.44 | 1.88 | 16.64 | 27 | 0 | 20 | 25.89 | 28.48 |
| 02:31 | 2 | 15.5 | 88 | 38,459 | 0.21 | 0.57 | 1.77 | 15.67 | 27.79 | 0 | 19.14 | 25.89 | 28.48 |
| 02:30 | 2 | 15.5 | 88 | 38,459 | 0.21 | 0.8 | 1.79 | 16.02 | 31.11 | 0 | 20 | 26.57 | 29.23 |
| 02:29 | 2 | 15.5 | 88 | 38,459 | 0.22 | 1.53 | 1.89 | 16.43 | 29.98 | 0 | 19.14 | 25.21 | 27.73 |
| 02:28 | 2 | 15.6 | 88 | 38,459 | 0.22 | 1.4 | 1.88 | 20.45 | 24.41 | 0 | 18.29 | 25.89 | 28.48 |
| 02:27 | 2 | 15.6 | 88 | 38,459 | 0.21 | 1.43 | 1.76 | 18.93 | 28.55 | 0 | 20.86 | 26.57 | 29.23 |
| 02:26 | 2 | 15.6 | 88 | 38,459 | 0.22 | 1.32 | 1.77 | 19.55 | 25.87 | 0 | 20 | 27.94 | 28.28 |
| 02:25 | 2 | 15.6 | 88 | 38,459 | 0.22 | 1.01 | 1.85 | 15.58 | 28.52 | 0 | 18.29 | 25.21 | 27.73 |
| 02:24 | 2 | 15.6 | 88 | 38,459 | 0.23 | 4.66 | 1.59 | 24.49 | 31.09 | 0 | 20 | 25.21 | 27.73 |
| 02:21 | 2 | 15.5 | 88 | 38,459 | 0.22 | 1.64 | 1.65 | 17.07 | 31.05 | 0 | 20 | 25.22 | 27.74 |
| 02:19 | 2 | 15.6 | 88 | 38,459 | 0.21 | 2.86 | 1.62 | 24.71 | 26.36 | 0 | 20.86 | 23.85 | 26.24 |
| 02:18 | 2 | 15.6 | 88 | 38,459 | 0.21 | 2.89 | 1.55 | 26.63 | 29.09 | 0 | 20 | 27.27 | 30 |
| 02:17 | 2 | 15.5 | 88 | 38,459 | 0.22 | 1.01 | 1.54 | 15.21 | 31.38 | 0 | 19.14 | 27.27 | 30 |
| 02:16 | 2 | 15.5 | 88 | 38,459 | 0.22 | 3.82 | 1.61 | 21.06 | 34.79 | 0 | 21.72 | 27.97 | 30.76 |
| 02:15 | 2 | 15.5 | 87 | 38,459 | 0.22 | 4.94 | 1.68 | 25.8 | 31.7 | 0 | 19.14 | 27.34 | 30.07 |
| 02:12 | 2 | 15.5 | 88 | 38,459 | 0.22 | 3.75 | 1.97 | 22.99 | 34.52 | 0 | 20 | 27.28 | 30.01 |
| 02:11 | 2 | 15.5 | 88 | 38,459 | 0.22 | 3.62 | 1.95 | 23.25 | 29.29 | 0 | 20 | 26.6 | 29.26 |
| 02:10 | 2 | 15.5 | 88 | 38,459 | 0.21 | 2.31 | 1.89 | 19.56 | 28.94 | 0 | 20.86 | 28.64 | 31.5 |
| 02:09 | 2 | 15.5 | 88 | 38,459 | 0.21 | 3.36 | 1.85 | 23.54 | 31.56 | 0 | 20.86 | 27.27 | 30 |